Regional Weather Roundup
Issued by NWS Cleveland, OH

Home | Current Version | Previous Version | Graphics & Text | Print | Product List | Glossary On
Versions: 1 2 3 4 5 6 7 8 9 10 11 12 13 14 15 16 17 18 19 20 21 22 23 24 25 26 27 28 29 30 31 32 33 34 35 36 37 38 39 40 41 42 43 44 45 46 47 48 49 50
000
ASUS41 KCLE 210500
RWRCLE
OHIO REGIONAL WEATHER ROUNDUP
NATIONAL WEATHER SERVICE WILMINGTON, OH
100 AM EDT TUE APR 21 2015

NOTE: "FAIR" INDICATES FEW OR NO CLOUDS BELOW 12,000 FEET WITH NO
SIGNIFICANT WEATHER AND/OR OBSTRUCTIONS TO VISIBILITY.

OHZ001>008-015>018-024>027-034-035-043-044-210600-
   NORTHWEST OHIO

CITY           SKY/WX    TMP DP  RH WIND       PRES   REMARKS
DEFIANCE       PTCLDY    44  34  67 W8        29.66R
FINDLAY        PTCLDY    45  34  65 W15G28    29.66R
TOLEDO EXPRESS PTCLDY    45  30  55 W20       29.63R
TOLEDO EXEC    CLOUDY    47  30  51 W17G26    29.64R
LIMA           CLOUDY    46  36  68 SW14      29.69R
$$

OHZ009>014-019>023-028>033-038-089-210600-
   NORTHEAST OHIO

CITY           SKY/WX    TMP DP  RH WIND       PRES   REMARKS
CLE-HOPKINS    MOCLDY    47  36  65 SW13      29.67R
CLE-LAKEFRONT  CLOUDY    49  36  61 SW14G26   29.64R
CUY CO. ARPT   NOT AVBL
LORAIN-ELYRIA  CLOUDY    46  37  71 W16       29.65R
ASHTABULA      PTCLDY    47  36  65 W15       29.63R
AKRON-CANTON   PTCLDY    47  34  60 W15       29.67R
WOOSTER        NOT AVBL
MANSFIELD      PTCLDY    44  35  70 SW8       29.67R
YOUNGSTOWN     PTCLDY    46  34  62 W10G22    29.65R
$$

OHZ042-051>053-060>062-070>072-077>081-210600-
  SOUTHWEST OHIO

CITY           SKY/WX    TMP DP  RH WIND       PRES   REMARKS
CINC-COVINGTON MOCLDY    48  34  58 W9G16     29.79S
CINC-LUNKEN    CLOUDY    49  36  61 SW10      29.81R
HAMILTON       CLOUDY    48  37  65 W6        29.79R
DAYTON         NOT AVBL
WRIGHT-PAT AFB NOT AVBL
DAYTON GENERAL CLOUDY    48  35  60 W10       29.76R
WILMINGTON     CLOUDY    47  34  60 W15       29.77R
$$

OHZ036-037-039>041-045>050-054>059-063>069-073>076-082>088-210600-
  CENTRAL AND SOUTHEAST OHIO

CITY           SKY/WX    TMP DP  RH WIND       PRES   REMARKS
COLUMBUS       PTCLDY    46  36  68 W9        29.74R
OSU AIRPORT    PTCLDY    45  34  65 W9        29.73R
BOLTON FIELD   NOT AVBL
RICKENBACK AFB NOT AVBL
NEWARK         CLOUDY    49  37  63 W8        29.73R
MARION         CLOUDY    46  34  62 W13       29.70R
LANCASTER      MOCLDY    48  36  63 W12       29.76R
ZANESVILLE     CLOUDY    49  35  58 W14G21    29.73R
NEW PHILLY     CLEAR     49  37  63 W6        29.71R
$$


USA.gov is the U.S. government's official web portal to all federal, state and local government web resources and services.